Regional Weather Roundup
Issued by NWS Grand Forks, ND

Home | Current Version | Previous Version | Graphics & Text | Print | Product List | Glossary On
Versions: 1 2 3 4 5 6 7 8 9 10 11 12 13 14 15 16 17 18 19 20 21 22 23 24 25 26 27 28 29 30 31 32 33 34 35 36 37 38 39 40 41 42 43 44 45 46 47 48 49 50
000
ASUS43 KFGF 270410
RWRFGF
PRAIRIE TO PINES  WEATHER ROUNDUP
NATIONAL WEATHER SERVICE EASTERN NORTH DAKOTA/GRAND FORKS ND
1100 PM CDT TUE MAY 26 2015

 **SATELLITE DATA USED TO AUGMENT SKY COVER AT AUTOMATED STATIONS**
 *****  WEATHER ACROSS EASTERN NORTH DAKOTA  *****

CITY           SKY/WX    TMP DP  RH WIND       PRES   REMARKS
GRAND FORKS    PTCLDY    62  52  69 W7        29.76R
GRAND FRKS AFB MOCLDY    66  50  55 W6        29.77R
GRAND FRKS NWS   N/A     61 N/A N/A N1          N/A
DEVILS LAKE    CLEAR     64  46  52 NW9       29.84R
FARGO          PTCLDY    63  53  70 SW7       29.79R
WAHPETON ARPT  PTCLDY    61  54  77 CALM      29.82R
$$

 ***** WEATHER ACROSS CENTRAL AND WESTERN NORTH DAKOTA  *****

CITY           SKY/WX    TMP DP  RH WIND       PRES   REMARKS
BISMARCK       CLEAR     61  52  72 CALM      29.91R
MINOT          PTCLDY    61  47  59 SW10      29.87R
JAMESTOWN      PTCLDY    65  45  48 NW13      29.84R
MINOT AFB      PTCLDY    59  55  88 SW8       29.86R
GARRISON         N/A     59  48  67 N3        29.90R
WILLISTON      MOCLDY    67  44  43 E9        29.90R
DICKINSON      PTCLDY    55  43  63 S8        29.93R
HETTINGER      PTCLDY    51  46  83 CALM      29.97R
$$

 *****  OTHER AIRPORT OBSERVATIONS IN OUR AREA  *****

CITY           SKY/WX    TMP DP  RH WIND       PRES   REMARKS
WALHALLA         N/A     68  41  37 MISG      29.79S
GRAFTON AIRPOR FAIR      66  50  55 W8        29.78R
VALLEY CITY AR FAIR      64  48  55 W8        29.83R
CANDO          FAIR      63  45  51 N7        29.86R
CAVALIER APRT  FAIR      70  45  40 N7        29.78R
GWINNER        NOT AVBL
SHEYENNE NWR     N/A     59  54  82 W6        29.95
ROLLA          FAIR      59  43  55 N6        29.87R
 ***** THE ABOVE OBSERVATIONS ARE NON NWS ARE NOT QUALITY
       CONTROLLED AND MAY MIS-REPORT RAIN FOR SNOW...
$$

  *****  WEATHER ACROSS NORTHERN MINNESOTA  *****

CITY           SKY/WX    TMP DP  RH WIND       PRES   REMARKS
FLAG ISLAND    PTCLDY    64  52  63 CALM      29.73S
WARROAD        FAIR      61  54  77 S8        29.77S
ROSEAU         FAIR      64  52  63 S8        29.77S
HALLOCK        PTCLDY    66  45  45 CALM      29.76R
THF RVR FALLS  PTCLDY    64  52  63 S6        29.78S
BAUDETTE       MOCLDY    68  51  54 NW9       29.76R
WASKISH        MOCLDY    64  57  77 CALM      29.78R
CROOKSTON      PTCLDY    61  52  72 S5        29.78R
STEPHEN NDAWN    N/A     64  48  55 W6          N/A
GREENBUSH NDAW   N/A     64  55  72 SW3         N/A
$$
  *****  WEATHER ACROSS CENTRAL AND WEST MINNESOTA  *****

CITY           SKY/WX    TMP DP  RH WIND       PRES   REMARKS
FOSSTON        MOCLDY    57  52  82 S6        29.80S
BEMIDJI        CLOUDY    59  49  71 W5        29.79R
PARK RAPIDS    CLOUDY    60  55  83 W5        29.81R
ELBOW LAKE     FAIR      63  55  76 SE3       29.83R
WADENA         CLOUDY    59  54  82 S3        29.82S
DETROIT LAKES  MOCLDY    61  55  82 SW5       29.83S
MOORHEAD       PTCLDY    63  54  72 SW6       29.81R
FERGUS FALLS   MOCLDY    63  55  77 S3        29.83R
MORRIS MN      CLOUDY    59  57  94 S3        29.83R
STAPLES        MOCLDY    55  54  94 SW5       29.82F
$$
  *****  WEATHER ELSEWHERE ACROSS MINNESOTA  *****

CITY           SKY/WX    TMP DP  RH WIND       PRES   REMARKS
DULUTH         CLOUDY    56  51  84 CALM      29.79S
INTRNTL FALLS  MOCLDY    55  50  83 CALM      29.76R
ELY            NOT AVBL
CLOQUET        CLOUDY    54  50  87 CALM      29.80S
WHEATON        MOCLDY    59  52  77 CALM      29.84R
BRAINERD       CLOUDY    55  54  96 S3        29.82S
HIBBING        MOCLDY    52  49  89 CALM      29.80R
ALEXANDRIA     CLOUDY    60  52  74 S3        29.85R
SAINT CLOUD    CLOUDY    57  55  93 NW6       29.82R
MINNEAPOLIS    CLOUDY    58  56  93 W5        29.82R
$$

  *****  WEATHER ACROSS SOUTH DAKOTA  *****

CITY           SKY/WX    TMP DP  RH WIND       PRES   REMARKS
SIOUX FALLS    CLOUDY    57  53  86 CALM      29.89R
BROOKINGS      MOCLDY    59  54  82 W3        29.90R
WATERTOWN      CLOUDY    64  50  60 W15       29.84F
HURON          CLOUDY    61  49  64 CALM      29.89R
SISSETON         N/A     63  50  62 NW3       29.82R
ABERDEEN       MOCLDY    58  53  84 SE3       29.88R
MITCHELL       MOCLDY    62  53  72 NW9       29.90R
PIERRE         PTCLDY    62  48  60 SW3       29.93R
MOBRIDGE       MOCLDY    63  54  72 SE5       29.90R
RAPID CITY     MOCLDY    56  49  77 W6        29.99R
$$

  *****  SOME WEATHER IN NEARBY STATES *****

CITY           SKY/WX    TMP DP  RH WIND       PRES   REMARKS
GLASGOW MT     PTCLDY    64  43  46 SW5       29.88R
GREAT FALLS MT PTCLDY    55  48  77 NE7       29.97R
CHEYENNE WY    CLEAR     51  47  86 SE7       30.10R
SCOTTSBLUFF NE PTCLDY    59  52  77 E7        30.03R
OMAHA NE       PTCLDY    58  56  93 N5        29.92R
DES MOINES IA  CLOUDY    63  59  87 W7        29.88R
DAVENPORT IA   PTCLDY    65  60  84 SW8       29.84R
CHICAGO IL     MOCLDY    67  60  78 S9        29.84S
EAU CLAIRE WI  CLOUDY    57  56  96 W7        29.76R
LA CROSSE WI   CLOUDY    63  58  83 W8        29.77R
$$

  *****  SOME NATIONAL WEATHER *****

CITY           SKY/WX    TMP DP  RH WIND       PRES   REMARKS
LA GUARDIA NY  MOCLDY    74  61  63 SW10      30.16S
RALEIGH NC     MOCLDY    75  68  78 S9        30.24R
ATLANTA GA     CLOUDY    67  64  90 S3        30.23S
NEW ORLEANS LA PTCLDY    78  71  79 SE3       30.10F
OKLAHOMA CITY  CLOUDY    70  66  87 S16       29.92F
ALBUQUERQUE NM PTCLDY    63  45  51 SE12      30.11R
SALT LAKE CITY PTCLDY    58  50  75 S9        30.04R
LOS ANGELES CA MOCLDY    58  54  86 W7        29.99R
BOISE ID       PTCLDY    68  44  42 SE7       29.87R
SEATTLE WA     MOCLDY    65  51  60 W5        30.02S
$$

*** WEATHER ACROSS MANITOBA...SASKATCHEWAN AND ONTARIO ***
                ***ONTARIO***

CITY           SKY/WX    TMP DP  RH WIND       PRES   REMARKS
GERALDTON      CLOUDY    59  52  77 S3        29.74F
THUNDER BAY    CLOUDY    55  52  88 E5        29.76S
SIOUX LOOKOUT  MOCLDY    57  48  72 CALM      29.73F
TORONTO        PTCLDY    66  61  82 S7        29.95F
BIG TROUT LK   CLOUDY    37  34  87 NE9G18    29.86F
PICKLE LAKE    NOT AVBL
DRYDEN         MOCLDY    64  52  63 VRB2      29.74S
KENORA         PTCLDY    64  48  55 S6        29.75S
$$
                *** MANITOBA***

CITY           SKY/WX    TMP DP  RH WIND       PRES   REMARKS
BRANDON        LGT RAIN  63  54  72 NE9       29.85R
DAUPHIN        CLEAR     55  46  71 N13G18    29.90R
ISLAND LAKE    CLOUDY    43  36  75 N8        29.93R
PILOT MOUND      N/A     70  43  37 N8          N/A
THE PAS        PTCLDY    48  39  71 N3        30.01R
THOMPSON       CLEAR     30  27  86 N2        30.02R
WINNIPEG       PTCLDY    63  50  63 NE9       29.79R
LYNN LAKE      CLEAR     41  23  48 N7        30.02R
CHURCHILL      PTCLDY    30  25  80 S8        30.01S WCI  23
GILLAM         CLEAR     30  21  69 E5        30.04R
$$
                ***SASKATCHEWAN***

CITY           SKY/WX    TMP DP  RH WIND       PRES   REMARKS
ESTEVAN        PTCLDY    61  48  63 S8        29.88R
KINDERSLEY     TSTM      61  48  63 W10       29.95R
LLOYDMINSTER   PTCLDY    54  36  50 E9        29.98R
PRINCE ALBERT  PTCLDY    54  37  54 NE13      29.99R SMOKE
REGINA         MOCLDY    64  41  42 N10       29.86R
YORKTON        CLEAR     57  46  67 N12       29.89R
N. BATTLEFORD  CLEAR     59  41  51 NE9       29.98R
LA RONGE       CLEAR     45  39  81 S3        30.02R
SASKATOON      PTCLDY    61  41  48 NE15      29.96R
SWIFT CURRENT  PTCLDY    63  39  42 NW10G17   29.91R
$$
NOTE: THESE ARE AUTOMATED STATIONS WITH LIMITED QUALITY CONTROL
      "FAIR" INDICATES FEW OR NO CLOUDS BELOW 12,000 FEET WITH NO
      SIGNIFICANT WEATHER AND/OR OBSTRUCTIONS TO VISIBILITY.
      SKY/WX - SKY CONDITION AND SIGNIFICANT WEATHER.
      TMP - AIR TEMPERATURE.    DP   - DEWPOINT TEMPERATURE.
      RH  - RELATIVE HUMIDITY.  PRES - PRESSURE.
      HX  - HEAT INDEX.         WCI  - WIND CHILL INDEX.
$


USA.gov is the U.S. government's official web portal to all federal, state and local government web resources and services.